TimeEST,TemperatureF,Dew PointF,Humidity,Sea Level PressureIn,VisibilityMPH,Wind Direction,Wind SpeedMPH,Gust SpeedMPH,PrecipitationIn,Events,Conditions,WindDirDegrees,DateUTC
12:15 AM,46.4,32.0,57,30.24,10.0,SW,4.6,-,N/A,,Clear,220,2013-11-10 05:15:00
12:35 AM,46.4,32.0,57,30.23,10.0,Calm,Calm,-,N/A,,Clear,0,2013-11-10 05:35:00
12:55 AM,46.4,32.0,57,30.23,10.0,SW,3.5,-,N/A,,Clear,220,2013-11-10 05:55:00
1:15 AM,44.6,32.0,61,30.23,10.0,Calm,Calm,-,N/A,,Clear,0,2013-11-10 06:15:00
1:35 AM,44.6,32.0,61,30.22,10.0,SSW,3.5,-,N/A,,Clear,210,2013-11-10 06:35:00
1:55 AM,46.4,32.0,57,30.21,10.0,SSW,3.5,-,N/A,,Clear,200,2013-11-10 06:55:00
2:15 AM,46.4,32.0,57,30.22,10.0,Calm,Calm,-,N/A,,Clear,0,2013-11-10 07:15:00
2:35 AM,48.2,32.0,54,30.22,10.0,SW,3.5,-,N/A,,Clear,230,2013-11-10 07:35:00
2:55 AM,46.4,32.0,57,30.21,10.0,SW,3.5,-,N/A,,Clear,220,2013-11-10 07:55:00
3:15 AM,48.2,32.0,54,30.21,10.0,WSW,3.5,-,N/A,,Clear,240,2013-11-10 08:15:00
3:35 AM,46.4,32.0,57,30.22,10.0,Calm,Calm,-,N/A,,Clear,0,2013-11-10 08:35:00
3:55 AM,46.4,32.0,57,30.21,10.0,NNW,3.5,-,N/A,,Clear,330,2013-11-10 08:55:00
4:15 AM,42.8,32.0,66,30.21,10.0,Calm,Calm,-,N/A,,Clear,0,2013-11-10 09:15:00
4:35 AM,42.8,33.8,70,30.22,10.0,Calm,Calm,-,N/A,,Clear,0,2013-11-10 09:35:00
4:55 AM,42.8,33.8,70,30.22,10.0,Calm,Calm,-,N/A,,Clear,0,2013-11-10 09:55:00
5:15 AM,41.0,33.8,76,30.22,10.0,Calm,Calm,-,N/A,,Clear,0,2013-11-10 10:15:00
5:35 AM,39.2,33.8,81,30.22,10.0,Calm,Calm,-,N/A,,Clear,0,2013-11-10 10:35:00
5:55 AM,39.2,33.8,81,30.23,10.0,Calm,Calm,-,N/A,,Clear,0,2013-11-10 10:55:00
6:15 AM,39.2,32.0,75,30.23,10.0,Calm,Calm,-,N/A,,Clear,0,2013-11-10 11:15:00
6:35 AM,37.4,32.0,81,30.24,10.0,Calm,Calm,-,N/A,,Clear,0,2013-11-10 11:35:00
6:51 AM,37.4,33.8,87,30.24,10.0,Calm,Calm,-,N/A,,Clear,0,2013-11-10 11:51:00
7:59 AM,44.6,37.4,76,30.25,10.0,Calm,Calm,-,N/A,,Clear,0,2013-11-10 12:59:00
8:50 AM,46.4,37.4,71,30.26,10.0,Calm,Calm,-,N/A,,Clear,0,2013-11-10 13:50:00
9:55 AM,53.6,39.2,58,30.26,10.0,Calm,Calm,-,N/A,,Clear,0,2013-11-10 14:55:00
10:51 AM,62.6,35.6,37,30.25,10.0,Calm,Calm,-,N/A,,Clear,0,2013-11-10 15:51:00
11:52 AM,66.2,30.2,26,-9999,10.0,WNW,4.6,-,N/A,,Clear,300,2013-11-10 16:52:00
12:57 PM,71.6,32.0,23,30.18,10.0,WNW,9.2,-,N/A,,Clear,300,2013-11-10 17:57:00
1:51 PM,73.4,28.4,19,30.17,10.0,NNW,13.8,20.7,N/A,,Clear,330,2013-11-10 18:51:00
2:51 PM,71.6,28.4,20,30.16,10.0,NW,8.1,-,N/A,,Clear,310,2013-11-10 19:51:00
5:55 PM,62.6,28.4,27,30.18,10.0,NW,5.8,-,N/A,,Clear,320,2013-11-10 22:55:00
6:55 PM,55.4,30.2,38,30.21,10.0,NNW,3.5,-,N/A,,Clear,340,2013-11-10 23:55:00
7:51 PM,55.4,30.2,38,30.22,10.0,NW,5.8,-,N/A,,Clear,320,2013-11-11 00:51:00
8:15 PM,48.2,32.0,54,30.22,10.0,NNW,4.6,-,N/A,,Clear,330,2013-11-11 01:15:00
8:35 PM,53.6,30.2,41,30.22,10.0,NNW,6.9,-,N/A,,Clear,330,2013-11-11 01:35:00
8:52 PM,55.4,30.2,38,30.22,10.0,North,9.2,-,N/A,,Clear,350,2013-11-11 01:52:00
8:55 PM,53.6,32.0,44,30.22,10.0,NNW,9.2,-,N/A,,Clear,340,2013-11-11 01:55:00
9:15 PM,53.6,32.0,44,30.23,10.0,NNW,8.1,-,N/A,,Clear,330,2013-11-11 02:15:00
9:35 PM,55.4,30.2,38,30.24,10.0,North,5.8,-,N/A,,Clear,350,2013-11-11 02:35:00
9:55 PM,53.6,30.2,41,30.24,10.0,NNW,6.9,-,N/A,,Clear,330,2013-11-11 02:55:00
10:15 PM,53.6,30.2,41,30.24,10.0,NNW,4.6,-,N/A,,Clear,330,2013-11-11 03:15:00
10:35 PM,50.0,33.8,54,30.26,10.0,North,8.1,-,N/A,,Clear,360,2013-11-11 03:35:00
10:55 PM,51.8,32.0,47,30.25,10.0,North,10.4,-,N/A,,Clear,10,2013-11-11 03:55:00
11:15 PM,53.6,26.6,35,30.26,10.0,North,11.5,-,N/A,,Clear,10,2013-11-11 04:15:00
11:35 PM,51.8,24.8,35,30.27,10.0,North,11.5,-,N/A,,Clear,10,2013-11-11 04:35:00
11:55 PM,51.8,23.0,33,30.27,10.0,North,13.8,-,N/A,,Clear,10,2013-11-11 04:55:00